Starlink 31873

operational
NORAD ID: 59790 Int'l Des: 2024-093 Owner: SPXS Country: US Constellation: starlink
LEOCIRCULAR

关于 Starlink 31873

正在加载描述...

实时位置

正在加载3D地球...

即将过境

高度历史

Altitude vs Time

uPlot chart will show altitude changes over time

两行轨道根数

1 59790U 24093J 25259.86971325 -.00002114 00000-0 -67384-4 0 9994
2 59790 43.0019 110.3873 0000386 250.7725 109.3085 15.27559559 76111
Epoch: Sep 16, 2025 • Age: 37 hours

当前状态

高度 486.6 km
速度 7.62 km/s
星下点 -17.58°S, 155.88°E
发射日期 May 18, 2024
运行时间 1.3 years
类型 internet

技术详情

分类 Payload
质量 730.00 kg
干质量 700.00 kg
总质量 730.00 kg
长度 0.30 m
直径 4.10 m
跨度 29.00 m
形状 Box + pan
制造商 SPXS
平台类型 Starlink V2M
阶段状态 In Orbit
所有者/国家 SPXS/US

大型星座

Loading constellations...